| time (UTC) | temp F | wind direction | speed MPH | gust MPH | rain 1hr in | rain 24hr in | rain mn in | humidity % | barometer mb |
| 20260507113111 | 50 | 42 | 1.0 | 2.0 | 0.00 | 0.00 | 0.00 | 92 | 1018.4 |
| 20260507112609 | 50 | 83 | 1.0 | 2.0 | 0.00 | 0.00 | 0.00 | 92 | 1018.4 |
| 20260507112105 | 50 | 64 | 1.0 | 2.0 | 0.00 | 0.00 | 0.00 | 92 | 1018.4 |
| 20260507111602 | 50 | 58 | 1.0 | 2.0 | 0.00 | 0.00 | 0.00 | 92 | 1018.5 |
| 20260507111059 | 50 | 73 | 1.0 | 2.0 | 0.00 | 0.00 | 0.00 | 91 | 1018.7 |
| 20260507110555 | 50 | 51 | 1.0 | 2.0 | 0.00 | 0.00 | 0.00 | 91 | 1018.7 |
| 20260507110052 | 50 | 37 | 2.0 | 2.0 | 0.00 | 0.00 | 0.00 | 91 | 1018.5 |
| 20260507105548 | 50 | 55 | 0.0 | 2.0 | 0.00 | 0.00 | 0.00 | 91 | 1018.6 |
| 20260507105044 | 50 | 74 | 1.0 | 2.0 | 0.00 | 0.00 | 0.00 | 91 | 1018.7 |
| 20260507104542 | 50 | 74 | 0.0 | 1.0 | 0.00 | 0.00 | 0.00 | 91 | 1018.5 |
| 20260507104038 | 51 | 82 | 1.0 | 2.0 | 0.00 | 0.00 | 0.00 | 91 | 1018.7 |
| 20260507103534 | 51 | 73 | 1.0 | 2.0 | 0.00 | 0.00 | 0.00 | 91 | 1018.8 |
| 20260507103031 | 50 | 171 | 0.0 | 2.0 | 0.00 | 0.00 | 0.00 | 91 | 1018.8 |
| 20260507102528 | 50 | 56 | 2.0 | 2.0 | 0.00 | 0.00 | 0.00 | 91 | 1018.7 |
| 20260507102024 | 50 | 59 | 1.0 | 2.0 | 0.00 | 0.00 | 0.00 | 91 | 1018.7 |
| 20260507101520 | 50 | 79 | 1.0 | 1.0 | 0.00 | 0.00 | 0.00 | 91 | 1019.0 |
| 20260507101016 | 51 | 73 | 0.0 | 1.0 | 0.00 | 0.00 | 0.00 | 90 | 1018.7 |
| 20260507100514 | 51 | 66 | 0.0 | 1.0 | 0.00 | 0.00 | 0.00 | 91 | 1019.0 |
| 20260507100012 | 50 | 88 | 1.0 | 2.0 | 0.00 | 0.00 | 0.00 | 90 | 1018.8 |
| 20260507095509 | 50 | 76 | 0.0 | 2.0 | 0.00 | 0.00 | 0.00 | 90 | 1018.8 |
| 20260507095006 | 51 | 63 | 0.0 | 2.0 | 0.00 | 0.00 | 0.00 | 90 | 1018.9 |
| 20260507094502 | 51 | 30 | 0.0 | 2.0 | 0.00 | 0.00 | 0.00 | 89 | 1018.9 |
| 20260507093959 | 51 | 52 | 0.0 | 2.0 | 0.00 | 0.00 | 0.00 | 89 | 1018.8 |
| 20260507093456 | 51 | 75 | 1.0 | 2.0 | 0.00 | 0.00 | 0.00 | 89 | 1018.9 |
| 20260507092954 | 51 | 324 | 0.0 | 2.0 | 0.00 | 0.00 | 0.00 | 89 | 1019.1 |
| 20260507092450 | 51 | 52 | 2.0 | 2.0 | 0.00 | 0.00 | 0.00 | 89 | 1018.9 |
| 20260507091942 | 51 | 28 | 0.0 | 2.0 | 0.00 | 0.00 | 0.00 | 89 | 1019.0 |
| 20260507091438 | 51 | 42 | 2.0 | 2.0 | 0.00 | 0.00 | 0.00 | 89 | 1019.3 |
| 20260507090934 | 51 | 27 | 0.0 | 1.0 | 0.00 | 0.00 | 0.00 | 89 | 1019.3 |
| 20260507090430 | 51 | 80 | 0.0 | 2.0 | 0.00 | 0.00 | 0.00 | 89 | 1019.2 |
| 20260507085927 | 51 | 304 | 0.0 | 2.0 | 0.00 | 0.00 | 0.00 | 88 | 1019.2 |
| 20260507085424 | 51 | 289 | 2.0 | 2.0 | 0.00 | 0.00 | 0.00 | 88 | 1019.4 |
| 20260507084921 | 51 | 76 | 0.0 | 1.0 | 0.00 | 0.00 | 0.00 | 88 | 1019.3 |
| 20260507084418 | 51 | 74 | 1.0 | 2.0 | 0.00 | 0.00 | 0.00 | 88 | 1019.3 |
| 20260507083915 | 51 | 66 | 0.0 | 2.0 | 0.00 | 0.00 | 0.00 | 88 | 1019.3 |
| 20260507083412 | 51 | 48 | 0.0 | 2.0 | 0.00 | 0.00 | 0.00 | 88 | 1019.4 |
| 20260507082908 | 51 | 63 | 1.0 | 2.0 | 0.00 | 0.00 | 0.00 | 88 | 1019.8 |
| 20260507082404 | 51 | 28 | 0.0 | 2.0 | 0.00 | 0.00 | 0.00 | 88 | 1019.4 |
| 20260507081901 | 51 | 73 | 1.0 | 2.0 | 0.00 | 0.00 | 0.00 | 87 | 1019.7 |
| 20260507081357 | 52 | 52 | 0.0 | 1.0 | 0.00 | 0.00 | 0.00 | 87 | 1019.7 |
| 20260507080854 | 52 | 38 | 0.0 | 1.0 | 0.00 | 0.00 | 0.00 | 87 | 1019.5 |
| 20260507080350 | 52 | 89 | 0.0 | 2.0 | 0.00 | 0.00 | 0.00 | 87 | 1019.9 |
| 20260507075846 | 52 | 69 | 0.0 | 1.0 | 0.00 | 0.00 | 0.00 | 87 | 1019.7 |
| 20260507075342 | 52 | 95 | 0.0 | 2.0 | 0.00 | 0.00 | 0.00 | 87 | 1019.5 |
| 20260507074838 | 52 | 47 | 1.0 | 2.0 | 0.00 | 0.00 | 0.00 | 87 | 1019.5 |
| 20260507074336 | 53 | 72 | 1.0 | 2.0 | 0.00 | 0.00 | 0.00 | 86 | 1019.5 |
| 20260507073833 | 53 | 352 | 0.0 | 2.0 | 0.00 | 0.00 | 0.00 | 86 | 1019.5 |
| 20260507073329 | 53 | 321 | 0.0 | 2.0 | 0.00 | 0.00 | 0.00 | 86 | 1019.5 |
| 20260507072827 | 53 | 48 | 2.0 | 2.0 | 0.00 | 0.00 | 0.00 | 85 | 1019.9 |
| 20260507072324 | 53 | 66 | 0.0 | 1.0 | 0.00 | 0.00 | 0.00 | 85 | 1019.8 |
| 20260507071821 | 54 | 55 | 0.0 | 2.0 | 0.00 | 0.00 | 0.00 | 85 | 1019.7 |
| 20260507071318 | 54 | 62 | 0.0 | 2.0 | 0.00 | 0.00 | 0.00 | 85 | 1020.0 |
| 20260507070815 | 53 | 77 | 2.0 | 2.0 | 0.00 | 0.00 | 0.00 | 85 | 1019.9 |
| 20260507070312 | 54 | 51 | 2.0 | 2.0 | 0.00 | 0.00 | 0.00 | 85 | 1019.8 |
| 20260507065809 | 54 | 64 | 1.0 | 2.0 | 0.00 | 0.00 | 0.00 | 85 | 1019.9 |
| 20260507065306 | 54 | 59 | 0.0 | 2.0 | 0.00 | 0.00 | 0.00 | 84 | 1019.9 |
| 20260507064803 | 54 | 50 | 0.0 | 2.0 | 0.00 | 0.00 | 0.00 | 84 | 1020.1 |
| 20260507064301 | 54 | 120 | 0.0 | 1.0 | 0.00 | 0.00 | 0.00 | 85 | 1019.9 |
| 20260507063759 | 54 | 46 | 0.0 | 2.0 | 0.00 | 0.00 | 0.00 | 84 | 1020.0 |
| 20260507063255 | 54 | 44 | 0.0 | 1.0 | 0.00 | 0.00 | 0.00 | 83 | 1019.9 |
| 20260507062752 | 54 | 74 | 0.0 | 1.0 | 0.00 | 0.00 | 0.00 | 83 | 1020.1 |
| 20260507062249 | 54 | 44 | 1.0 | 2.0 | 0.00 | 0.00 | 0.00 | 82 | 1019.8 |
| 20260507061747 | 55 | 66 | 0.0 | 2.0 | 0.00 | 0.00 | 0.00 | 82 | 1019.8 |
| 20260507061245 | 55 | 311 | 0.0 | 1.0 | 0.00 | 0.00 | 0.00 | 82 | 1019.9 |
| 20260507060743 | 55 | 66 | 0.0 | 1.0 | 0.00 | 0.00 | 0.00 | 82 | 1019.5 |
| 20260507060239 | 56 | 72 | 0.0 | 1.0 | 0.00 | 0.00 | 0.00 | 82 | 1019.8 |
| 20260507055736 | 56 | 56 | 0.0 | 1.0 | 0.00 | 0.00 | 0.00 | 81 | 1019.7 |
| 20260507055231 | 56 | 80 | 0.0 | 0.0 | 0.00 | 0.00 | 0.00 | 81 | 1019.9 |
| 20260507054727 | 56 | 76 | 0.0 | 1.0 | 0.00 | 0.00 | 0.00 | 81 | 1019.8 |
| 20260507054224 | 56 | 103 | 0.0 | 2.0 | 0.00 | 0.00 | 0.00 | 81 | 1019.9 |
| 20260507053722 | 56 | 61 | 0.0 | 1.0 | 0.00 | 0.00 | 0.00 | 81 | 1019.8 |
| 20260507053219 | 57 | 63 | 0.0 | 1.0 | 0.00 | 0.00 | 0.00 | 80 | 1020.0 |
| 20260507052718 | 57 | 89 | 0.0 | 1.0 | 0.00 | 0.00 | 0.00 | 79 | 1019.9 |
| 20260507052214 | 57 | 76 | 0.0 | 0.0 | 0.00 | 0.00 | 0.00 | 79 | 1020.0 |
| 20260507051712 | 57 | 52 | 0.0 | 1.0 | 0.00 | 0.00 | 0.00 | 79 | 1020.0 |
| 20260507051209 | 58 | 58 | 1.0 | 2.0 | 0.00 | 0.00 | 0.00 | 79 | 1019.9 |
| 20260507050705 | 58 | 55 | 0.0 | 1.0 | 0.00 | 0.00 | 0.00 | 78 | 1020.1 |
| 20260507050202 | 59 | 60 | 0.0 | 2.0 | 0.00 | 0.00 | 0.00 | 78 | 1020.0 |
| 20260507045659 | 59 | 102 | 0.0 | 1.0 | 0.00 | 0.00 | 0.00 | 77 | 1019.8 |
| 20260507045156 | 59 | 63 | 0.0 | 2.0 | 0.00 | 0.00 | 0.00 | 76 | 1019.9 |
| 20260507044652 | 59 | 89 | 1.0 | 2.0 | 0.00 | 0.00 | 0.00 | 76 | 1019.7 |
| 20260507044149 | 59 | 58 | 1.0 | 2.0 | 0.00 | 0.00 | 0.00 | 75 | 1020.0 |
| 20260507043645 | 59 | 14 | 2.0 | 2.0 | 0.00 | 0.00 | 0.00 | 75 | 1019.9 |
| 20260507043142 | 60 | 55 | 1.0 | 2.0 | 0.00 | 0.00 | 0.00 | 74 | 1019.5 |
| 20260507042639 | 60 | 73 | 0.0 | 2.0 | 0.00 | 0.00 | 0.00 | 74 | 1019.5 |
| 20260507042134 | 60 | 57 | 1.0 | 2.0 | 0.00 | 0.00 | 0.00 | 73 | 1019.8 |
| 20260507041631 | 60 | 41 | 1.0 | 2.0 | 0.00 | 0.00 | 0.00 | 73 | 1019.7 |
| 20260507041127 | 60 | 65 | 1.0 | 2.0 | 0.00 | 0.00 | 0.00 | 72 | 1019.8 |
| 20260507040625 | 60 | 70 | 0.0 | 1.0 | 0.00 | 0.00 | 0.00 | 72 | 1019.4 |
| 20260507040121 | 61 | 46 | 2.0 | 3.0 | 0.00 | 0.00 | 0.00 | 71 | 1019.5 |
| 20260507035617 | 61 | 52 | 0.0 | 2.0 | 0.00 | 0.00 | 0.00 | 70 | 1019.5 |
| 20260507035113 | 61 | 18 | 2.0 | 2.0 | 0.00 | 0.00 | 0.00 | 70 | 1019.5 |
| 20260507034610 | 61 | 30 | 0.0 | 2.0 | 0.00 | 0.00 | 0.00 | 69 | 1019.1 |
| 20260507034108 | 61 | 57 | 0.0 | 2.0 | 0.00 | 0.00 | 0.00 | 69 | 1019.2 |
| 20260507033606 | 62 | 69 | 0.0 | 2.0 | 0.00 | 0.00 | 0.00 | 68 | 1019.1 |
| 20260507033103 | 62 | 35 | 1.0 | 2.0 | 0.00 | 0.00 | 0.00 | 68 | 1019.1 |
| 20260507032600 | 62 | 96 | 1.0 | 3.0 | 0.00 | 0.00 | 0.00 | 68 | 1019.0 |
| 20260507032056 | 62 | 110 | 0.0 | 2.0 | 0.00 | 0.00 | 0.00 | 67 | 1019.0 |
| 20260507031552 | 62 | 85 | 2.0 | 2.0 | 0.00 | 0.00 | 0.00 | 67 | 1019.1 |
| 20260507031050 | 63 | 89 | 0.0 | 3.0 | 0.00 | 0.00 | 0.00 | 67 | 1018.9 |
| 20260507030546 | 63 | 19 | 2.0 | 3.0 | 0.00 | 0.00 | 0.00 | 66 | 1018.7 |
| 20260507030044 | 63 | 55 | 0.0 | 2.0 | 0.00 | 0.00 | 0.00 | 66 | 1018.8 |
| 20260507025541 | 64 | 102 | 1.0 | 5.0 | 0.00 | 0.00 | 0.00 | 66 | 1018.7 |
| 20260507025038 | 64 | 58 | 2.0 | 5.0 | 0.00 | 0.00 | 0.00 | 66 | 1018.7 |
| 20260507024536 | 64 | 88 | 1.0 | 5.0 | 0.00 | 0.00 | 0.00 | 66 | 1018.6 |
| 20260507024033 | 64 | 61 | 2.0 | 4.0 | 0.00 | 0.00 | 0.00 | 65 | 1018.7 |
| 20260507023528 | 65 | 41 | 3.0 | 3.0 | 0.00 | 0.00 | 0.00 | 66 | 1018.4 |
| 20260507023026 | 65 | 101 | 2.0 | 4.0 | 0.00 | 0.00 | 0.00 | 65 | 1018.4 |
| 20260507022523 | 66 | 23 | 1.0 | 6.0 | 0.00 | 0.00 | 0.00 | 65 | 1018.4 |
| 20260507022018 | 66 | 34 | 2.0 | 4.0 | 0.00 | 0.00 | 0.00 | 64 | 1018.4 |
| 20260507021514 | 66 | 108 | 3.0 | 7.0 | 0.00 | 0.00 | 0.00 | 64 | 1018.3 |
| 20260507021011 | 67 | 111 | 1.0 | 3.0 | 0.00 | 0.00 | 0.00 | 64 | 1018.3 |
| 20260507020508 | 67 | 4 | 1.0 | 4.0 | 0.00 | 0.00 | 0.00 | 64 | 1018.4 |
| 20260507020005 | 67 | 60 | 2.0 | 4.0 | 0.00 | 0.00 | 0.00 | 63 | 1018.2 |
| 20260507015504 | 67 | 359 | 0.0 | 3.0 | 0.00 | 0.00 | 0.00 | 63 | 1018.1 |
| 20260507015001 | 68 | 315 | 2.0 | 4.0 | 0.00 | 0.00 | 0.00 | 63 | 1018.1 |
| 20260507014457 | 68 | 116 | 2.0 | 5.0 | 0.00 | 0.00 | 0.00 | 62 | 1017.9 |
| 20260507013953 | 68 | 59 | 2.0 | 7.0 | 0.00 | 0.00 | 0.00 | 62 | 1018.0 |
| 20260507013449 | 69 | 331 | 4.0 | 6.0 | 0.00 | 0.00 | 0.00 | 61 | 1017.9 |
| 20260507012947 | 70 | 57 | 1.0 | 5.0 | 0.00 | 0.00 | 0.00 | 59 | 1018.0 |
| 20260507012444 | 70 | 78 | 2.0 | 8.0 | 0.00 | 0.00 | 0.00 | 60 | 1017.7 |
| 20260507011940 | 70 | 65 | 3.0 | 6.0 | 0.00 | 0.00 | 0.00 | 60 | 1017.9 |
| 20260507011437 | 70 | 92 | 6.0 | 7.0 | 0.00 | 0.00 | 0.00 | 58 | 1017.9 |
| 20260507010932 | 71 | 6 | 2.0 | 11.0 | 0.00 | 0.00 | 0.00 | 58 | 1017.9 |
| 20260507010427 | 71 | 115 | 4.0 | 6.0 | 0.00 | 0.00 | 0.00 | 58 | 1017.8 |
| 20260507005924 | 71 | 34 | 5.0 | 6.0 | 0.00 | 0.00 | 0.00 | 58 | 1017.6 |
| 20260507005422 | 71 | 86 | 4.0 | 5.0 | 0.00 | 0.00 | 0.00 | 57 | 1017.7 |
| 20260507004918 | 72 | 9 | 4.0 | 6.0 | 0.00 | 0.00 | 0.00 | 57 | 1017.5 |
| 20260507004415 | 72 | 13 | 4.0 | 7.0 | 0.00 | 0.00 | 0.00 | 56 | 1017.4 |
| 20260507003912 | 74 | 6 | 4.0 | 9.0 | 0.00 | 0.00 | 0.00 | 54 | 1017.6 |
| 20260507003407 | 73 | 93 | 0.0 | 6.0 | 0.00 | 0.00 | 0.00 | 55 | 1017.5 |
| 20260507002903 | 73 | 95 | 2.0 | 7.0 | 0.00 | 0.00 | 0.00 | 55 | 1017.5 |
| 20260507002359 | 73 | 57 | 3.0 | 9.0 | 0.00 | 0.00 | 0.00 | 55 | 1017.4 |
| 20260507001856 | 73 | 74 | 5.0 | 9.0 | 0.00 | 0.00 | 0.00 | 55 | 1017.5 |
| 20260507001353 | 74 | 11 | 2.0 | 7.0 | 0.00 | 0.00 | 0.00 | 54 | 1017.4 |
| 20260507000850 | 74 | 101 | 7.0 | 8.0 | 0.00 | 0.00 | 0.00 | 54 | 1017.3 |
| 20260507000345 | 74 | 124 | 1.0 | 5.0 | 0.00 | 0.00 | 0.00 | 54 | 1017.2 |
| 20260506235842 | 74 | 107 | 4.0 | 9.0 | 0.00 | 0.00 | 0.00 | 54 | 1017.4 |
| 20260506235339 | 74 | 38 | 4.0 | 6.0 | 0.00 | 0.00 | 0.00 | 54 | 1017.1 |
| 20260506234835 | 74 | 17 | 6.0 | 9.0 | 0.00 | 0.00 | 0.00 | 54 | 1017.4 |
| 20260506234332 | 74 | 29 | 3.0 | 7.0 | 0.00 | 0.00 | 0.00 | 55 | 1017.2 |
| 20260506233829 | 75 | 82 | 2.0 | 5.0 | 0.00 | 0.00 | 0.00 | 53 | 1017.1 |
| 20260506233320 | 75 | 91 | 1.0 | 7.0 | 0.00 | 0.00 | 0.00 | 53 | 1017.2 |
| 20260506232817 | 75 | 85 | 1.0 | 7.0 | 0.00 | 0.00 | 0.00 | 53 | 1017.1 |
| 20260506232312 | 75 | 122 | 3.0 | 5.0 | 0.00 | 0.00 | 0.00 | 53 | 1017.2 |
| 20260506231809 | 75 | 110 | 2.0 | 8.0 | 0.00 | 0.00 | 0.00 | 52 | 1017.2 |
| 20260506231307 | 76 | 339 | 2.0 | 6.0 | 0.00 | 0.00 | 0.00 | 51 | 1017.1 |
| 20260506230805 | 76 | 112 | 7.0 | 8.0 | 0.00 | 0.00 | 0.00 | 51 | 1017.2 |
| 20260506230301 | 75 | 350 | 3.0 | 6.0 | 0.00 | 0.00 | 0.00 | 51 | 1017.2 |
| 20260506225757 | 76 | 32 | 3.0 | 7.0 | 0.00 | 0.00 | 0.00 | 51 | 1017.2 |
| 20260506225254 | 77 | 82 | 4.0 | 5.0 | 0.00 | 0.00 | 0.00 | 49 | 1017.3 |
| 20260506224745 | 77 | 89 | 0.0 | 4.0 | 0.00 | 0.00 | 0.00 | 49 | 1017.2 |
| 20260506224243 | 76 | 68 | 5.0 | 8.0 | 0.00 | 0.00 | 0.00 | 50 | 1017.2 |
| 20260506223738 | 76 | 35 | 2.0 | 7.0 | 0.00 | 0.00 | 0.00 | 50 | 1017.3 |
| 20260506223234 | 76 | 21 | 3.0 | 8.0 | 0.00 | 0.00 | 0.00 | 49 | 1017.4 |
| 20260506222731 | 77 | 333 | 2.0 | 6.0 | 0.00 | 0.00 | 0.00 | 48 | 1017.4 |
| 20260506222227 | 76 | 11 | 2.0 | 6.0 | 0.00 | 0.00 | 0.00 | 49 | 1017.4 |
| 20260506221725 | 77 | 102 | 6.0 | 6.0 | 0.00 | 0.00 | 0.00 | 48 | 1017.6 |
| 20260506221223 | 78 | 130 | 4.0 | 6.0 | 0.00 | 0.00 | 0.00 | 47 | 1017.6 |
| 20260506220720 | 77 | 108 | 4.0 | 7.0 | 0.00 | 0.00 | 0.00 | 48 | 1017.6 |
| 20260506220214 | 78 | 336 | 0.0 | 9.0 | 0.00 | 0.00 | 0.00 | 47 | 1017.7 |
| 20260506215711 | 77 | 5 | 8.0 | 8.0 | 0.00 | 0.00 | 0.00 | 47 | 1017.6 |
| 20260506215207 | 77 | 143 | 3.0 | 10.0 | 0.00 | 0.00 | 0.00 | 47 | 1017.7 |
| 20260506214704 | 77 | 13 | 2.0 | 4.0 | 0.00 | 0.00 | 0.00 | 46 | 1017.7 |
| 20260506214201 | 78 | 53 | 2.0 | 8.0 | 0.00 | 0.00 | 0.00 | 46 | 1017.8 |
| 20260506213700 | 79 | 259 | 1.0 | 6.0 | 0.00 | 0.00 | 0.00 | 45 | 1017.8 |
| 20260506213156 | 79 | 1 | 4.0 | 5.0 | 0.00 | 0.00 | 0.00 | 43 | 1018.0 |
| 20260506212653 | 79 | 105 | 0.0 | 3.0 | 0.00 | 0.00 | 0.00 | 37 | 1018.1 |
| 20260506212148 | 78 | 170 | 2.0 | 3.0 | 0.00 | 0.00 | 0.00 | 37 | 1018.2 |
| 20260506211644 | 78 | 281 | 0.0 | 3.0 | 0.00 | 0.00 | 0.00 | 38 | 1018.0 |
| 20260506211141 | 77 | 116 | 1.0 | 5.0 | 0.00 | 0.00 | 0.00 | 38 | 1018.1 |
| 20260506210638 | 77 | 160 | 2.0 | 3.0 | 0.00 | 0.00 | 0.00 | 39 | 1018.1 |
| 20260506210134 | 77 | 123 | 3.0 | 4.0 | 0.00 | 0.00 | 0.00 | 39 | 1018.0 |
| 20260506205632 | 77 | 352 | 1.0 | 2.0 | 0.00 | 0.00 | 0.00 | 39 | 1018.4 |
| 20260506205126 | 77 | 138 | 3.0 | 7.0 | 0.00 | 0.00 | 0.00 | 40 | 1018.4 |
| 20260506204625 | 76 | 288 | 2.0 | 3.0 | 0.00 | 0.00 | 0.00 | 41 | 1018.4 |
| 20260506204121 | 76 | 22 | 0.0 | 7.0 | 0.00 | 0.00 | 0.00 | 41 | 1018.5 |
| 20260506203620 | 76 | 189 | 0.0 | 3.0 | 0.00 | 0.00 | 0.00 | 42 | 1018.6 |
| 20260506203116 | 74 | 244 | 1.0 | 2.0 | 0.00 | 0.00 | 0.00 | 43 | 1018.6 |
| 20260506202614 | 74 | 169 | 3.0 | 7.0 | 0.00 | 0.00 | 0.00 | 44 | 1018.7 |
| 20260506202110 | 73 | 154 | 0.0 | 2.0 | 0.00 | 0.00 | 0.00 | 42 | 1018.7 |
| 20260506201607 | 75 | 139 | 1.0 | 3.0 | 0.00 | 0.00 | 0.00 | 44 | 1018.8 |
| 20260506201104 | 73 | 182 | 1.0 | 5.0 | 0.00 | 0.00 | 0.00 | 44 | 1018.9 |
| 20260506200600 | 73 | 112 | 2.0 | 8.0 | 0.00 | 0.00 | 0.00 | 43 | 1018.8 |
| 20260506200057 | 72 | 192 | 1.0 | 5.0 | 0.00 | 0.00 | 0.00 | 44 | 1018.9 |
| 20260506195553 | 73 | 209 | 4.0 | 6.0 | 0.00 | 0.00 | 0.00 | 43 | 1019.0 |
| 20260506195050 | 73 | 68 | 0.0 | 2.0 | 0.00 | 0.00 | 0.00 | 44 | 1019.1 |
| 20260506194548 | 73 | 102 | 3.0 | 4.0 | 0.00 | 0.00 | 0.00 | 43 | 1019.3 |
| 20260506194044 | 72 | 121 | 2.0 | 2.0 | 0.00 | 0.00 | 0.00 | 44 | 1019.3 |
| 20260506193541 | 71 | 95 | 4.0 | 4.0 | 0.00 | 0.00 | 0.00 | 45 | 1019.4 |
| 20260506193039 | 72 | 107 | 2.0 | 4.0 | 0.00 | 0.00 | 0.00 | 44 | 1019.4 |
| 20260506192535 | 70 | 159 | 0.0 | 2.0 | 0.00 | 0.00 | 0.00 | 45 | 1019.7 |
| 20260506192031 | 71 | 114 | 1.0 | 4.0 | 0.00 | 0.00 | 0.00 | 45 | 1019.7 |
| 20260506191528 | 71 | 349 | 2.0 | 5.0 | 0.00 | 0.00 | 0.00 | 45 | 1019.9 |
| 20260506191024 | 71 | 76 | 1.0 | 7.0 | 0.00 | 0.00 | 0.00 | 46 | 1019.7 |
| 20260506190521 | 69 | 89 | 0.0 | 6.0 | 0.00 | 0.00 | 0.00 | 48 | 1020.0 |
| 20260506190019 | 70 | 187 | 2.0 | 4.0 | 0.00 | 0.00 | 0.00 | 47 | 1019.9 |
| 20260506185515 | 70 | 121 | 0.0 | 3.0 | 0.00 | 0.00 | 0.00 | 47 | 1020.0 |
| 20260506185012 | 69 | 224 | 0.0 | 1.0 | 0.00 | 0.00 | 0.00 | 48 | 1020.0 |
| 20260506184509 | 69 | 89 | 0.0 | 2.0 | 0.00 | 0.00 | 0.00 | 49 | 1020.2 |
| 20260506184007 | 68 | 205 | 1.0 | 4.0 | 0.00 | 0.00 | 0.00 | 50 | 1020.2 |
| 20260506183502 | 67 | 176 | 1.0 | 4.0 | 0.00 | 0.00 | 0.00 | 51 | 1020.1 |
| 20260506182959 | 68 | 123 | 5.0 | 5.0 | 0.00 | 0.00 | 0.00 | 50 | 1020.2 |
| 20260506182456 | 68 | 78 | 3.0 | 7.0 | 0.00 | 0.00 | 0.00 | 51 | 1020.3 |
| 20260506181953 | 66 | 282 | 2.0 | 3.0 | 0.00 | 0.00 | 0.00 | 53 | 1020.4 |
| 20260506181452 | 67 | 137 | 2.0 | 5.0 | 0.00 | 0.00 | 0.00 | 52 | 1020.5 |
| 20260506180948 | 67 | 132 | 3.0 | 3.0 | 0.00 | 0.00 | 0.00 | 52 | 1020.4 |
| 20260506180444 | 66 | 196 | 4.0 | 4.0 | 0.00 | 0.00 | 0.00 | 53 | 1020.3 |
| 20260506175941 | 67 | 126 | 0.0 | 1.0 | 0.00 | 0.00 | 0.00 | 52 | 1020.6 |
| 20260506175438 | 65 | 21 | 2.0 | 5.0 | 0.00 | 0.00 | 0.00 | 54 | 1020.7 |
| 20260506174934 | 65 | 133 | 3.0 | 9.0 | 0.00 | 0.00 | 0.00 | 55 | 1020.6 |
| 20260506174432 | 65 | 47 | 1.0 | 1.0 | 0.00 | 0.00 | 0.00 | 54 | 1020.6 |
| 20260506173923 | 64 | 147 | 2.0 | 4.0 | 0.00 | 0.00 | 0.00 | 57 | 1020.5 |
| 20260506173420 | 64 | 112 | 2.0 | 6.0 | 0.00 | 0.00 | 0.00 | 56 | 1020.6 |
| 20260506172918 | 65 | 117 | 3.0 | 4.0 | 0.00 | 0.00 | 0.00 | 56 | 1020.7 |
| 20260506172414 | 64 | 180 | 2.0 | 4.0 | 0.00 | 0.00 | 0.00 | 57 | 1020.9 |
| 20260506171911 | 64 | 89 | 0.0 | 4.0 | 0.00 | 0.00 | 0.00 | 57 | 1020.8 |
| 20260506171408 | 66 | 140 | 0.0 | 2.0 | 0.00 | 0.00 | 0.00 | 55 | 1020.7 |
| 20260506170906 | 64 | 14 | 0.0 | 2.0 | 0.00 | 0.00 | 0.00 | 57 | 1020.7 |
| 20260506170401 | 62 | 164 | 0.0 | 5.0 | 0.00 | 0.00 | 0.00 | 59 | 1020.9 |
| 20260506165855 | 62 | 108 | 2.0 | 4.0 | 0.00 | 0.00 | 0.00 | 63 | 1020.7 |
| 20260506165353 | 63 | 94 | 1.0 | 4.0 | 0.00 | 0.00 | 0.00 | 62 | 1020.7 |
| 20260506164849 | 63 | 38 | 0.0 | 2.0 | 0.00 | 0.00 | 0.00 | 62 | 1020.7 |
| 20260506164345 | 64 | 51 | 1.0 | 2.0 | 0.00 | 0.00 | 0.00 | 61 | 1020.8 |
| 20260506163843 | 62 | 9 | 1.0 | 2.0 | 0.00 | 0.00 | 0.00 | 63 | 1020.7 |
| 20260506163337 | 61 | 118 | 2.0 | 3.0 | 0.00 | 0.00 | 0.00 | 65 | 1020.9 |
| 20260506162833 | 62 | 325 | 0.0 | 3.0 | 0.00 | 0.00 | 0.00 | 67 | 1020.8 |
| 20260506162332 | 61 | 117 | 2.0 | 3.0 | 0.00 | 0.00 | 0.00 | 68 | 1020.7 |
| 20260506161829 | 62 | 53 | 1.0 | 2.0 | 0.00 | 0.00 | 0.00 | 67 | 1020.7 |
| 20260506161326 | 62 | 42 | 2.0 | 2.0 | 0.00 | 0.00 | 0.00 | 68 | 1020.8 |
| 20260506160823 | 60 | 145 | 0.0 | 0.0 | 0.00 | 0.00 | 0.00 | 70 | 1020.7 |
| 20260506160319 | 58 | 116 | 2.0 | 4.0 | 0.00 | 0.00 | 0.00 | 75 | 1020.9 |
| 20260506155818 | 58 | 103 | 4.0 | 4.0 | 0.00 | 0.00 | 0.00 | 75 | 1020.8 |
| 20260506155315 | 57 | 136 | 0.0 | 3.0 | 0.00 | 0.00 | 0.00 | 76 | 1020.7 |
| 20260506153428 | 57 | 74 | 0.0 | 3.0 | 0.00 | 0.00 | 0.00 | 78 | 1020.7 |
| 20260506152925 | 56 | 98 | 2.0 | 2.0 | 0.00 | 0.00 | 0.00 | 79 | 1020.8 |
| 20260506152422 | 57 | 123 | 0.0 | 1.0 | 0.00 | 0.00 | 0.00 | 78 | 1020.7 |
| 20260506151921 | 55 | 109 | 2.0 | 2.0 | 0.00 | 0.00 | 0.00 | 81 | 1020.9 |
| 20260506151417 | 55 | 97 | 0.0 | 2.0 | 0.00 | 0.00 | 0.00 | 82 | 1020.7 |
| 20260506150915 | 54 | 109 | 1.0 | 2.0 | 0.00 | 0.00 | 0.00 | 83 | 1020.8 |
| 20260506150410 | 53 | 94 | 2.0 | 2.0 | 0.00 | 0.00 | 0.00 | 83 | 1020.8 |
| 20260506145908 | 54 | 117 | 2.0 | 2.0 | 0.00 | 0.00 | 0.00 | 82 | 1020.7 |
| 20260506145404 | 53 | 99 | 0.0 | 2.0 | 0.00 | 0.00 | 0.00 | 83 | 1020.9 |
| 20260506144902 | 52 | 89 | 0.0 | 2.0 | 0.00 | 0.00 | 0.00 | 85 | 1020.7 |
| 20260506144357 | 52 | 115 | 1.0 | 2.0 | 0.00 | 0.00 | 0.00 | 87 | 1020.9 |
| 20260506143856 | 50 | 102 | 2.0 | 2.0 | 0.00 | 0.00 | 0.00 | 90 | 1020.6 |
| 20260506143353 | 49 | 84 | 2.0 | 2.0 | 0.00 | 0.00 | 0.00 | 92 | 1020.7 |
| 20260506142851 | 48 | 50 | 1.0 | 2.0 | 0.00 | 0.00 | 0.00 | 93 | 1020.6 |
| 20260506142349 | 48 | 112 | 2.0 | 2.0 | 0.00 | 0.00 | 0.00 | 93 | 1020.9 |
| 20260506141847 | 47 | 75 | 2.0 | 2.0 | 0.00 | 0.00 | 0.00 | 94 | 1020.5 |
| 20260506141345 | 47 | 47 | 1.0 | 2.0 | 0.00 | 0.00 | 0.00 | 94 | 1020.7 |
| 20260506140843 | 46 | 65 | 2.0 | 2.0 | 0.00 | 0.00 | 0.00 | 95 | 1020.6 |
| 20260506140339 | 46 | 65 | 1.0 | 2.0 | 0.00 | 0.00 | 0.00 | 95 | 1020.7 |
| 20260506135836 | 46 | 69 | 1.0 | 2.0 | 0.00 | 0.00 | 0.00 | 96 | 1020.6 |
| 20260506135333 | 46 | 63 | 0.0 | 2.0 | 0.00 | 0.00 | 0.00 | 96 | 1020.5 |
| 20260506134829 | 46 | 97 | 1.0 | 2.0 | 0.00 | 0.00 | 0.00 | 97 | 1020.3 |
| 20260506134326 | 46 | 62 | 1.0 | 2.0 | 0.00 | 0.00 | 0.00 | 97 | 1020.3 |
| 20260506133823 | 45 | 87 | 1.0 | 2.0 | 0.00 | 0.00 | 0.00 | 97 | 1020.6 |
| 20260506133319 | 44 | 78 | 1.0 | 2.0 | 0.00 | 0.00 | 0.00 | 97 | 1020.4 |
| 20260506132816 | 44 | 74 | 1.0 | 3.0 | 0.00 | 0.00 | 0.00 | 97 | 1020.2 |
| 20260506132313 | 43 | 70 | 2.0 | 2.0 | 0.00 | 0.00 | 0.00 | 97 | 1020.3 |
| 20260506131812 | 43 | 65 | 2.0 | 2.0 | 0.00 | 0.00 | 0.00 | 96 | 1020.2 |
| 20260506131307 | 43 | 85 | 1.0 | 2.0 | 0.00 | 0.00 | 0.00 | 96 | 1020.3 |
| 20260506130804 | 43 | 79 | 1.0 | 2.0 | 0.00 | 0.00 | 0.00 | 96 | 1020.0 |
| 20260506130301 | 43 | 53 | 2.0 | 2.0 | 0.00 | 0.00 | 0.00 | 96 | 1020.2 |
| 20260506125759 | 43 | 73 | 1.0 | 2.0 | 0.00 | 0.00 | 0.00 | 96 | 1020.1 |
| 20260506125257 | 43 | 74 | 1.0 | 2.0 | 0.00 | 0.00 | 0.00 | 96 | 1020.0 |
| 20260506124755 | 43 | 59 | 2.0 | 2.0 | 0.00 | 0.00 | 0.00 | 96 | 1020.0 |
| 20260506124252 | 44 | 89 | 1.0 | 2.0 | 0.00 | 0.00 | 0.00 | 96 | 1020.1 |
| 20260506123749 | 44 | 135 | 0.0 | 2.0 | 0.00 | 0.00 | 0.00 | 96 | 1020.0 |
| 20260506123248 | 44 | 60 | 0.0 | 2.0 | 0.00 | 0.00 | 0.00 | 96 | 1020.0 |
| 20260506122744 | 44 | 89 | 2.0 | 2.0 | 0.00 | 0.00 | 0.00 | 96 | 1019.9 |
| 20260506122242 | 44 | 66 | 2.0 | 2.0 | 0.00 | 0.00 | 0.00 | 96 | 1020.0 |
| 20260506121740 | 44 | 78 | 2.0 | 2.0 | 0.00 | 0.00 | 0.00 | 96 | 1019.9 |
| 20260506121236 | 44 | 77 | 2.0 | 3.0 | 0.00 | 0.00 | 0.00 | 96 | 1019.8 |
| 20260506120733 | 43 | 62 | 2.0 | 3.0 | 0.00 | 0.00 | 0.00 | 96 | 1019.9 |
| 20260506120231 | 43 | 112 | 2.0 | 2.0 | 0.00 | 0.00 | 0.00 | 96 | 1019.9 |
| 20260506115729 | 44 | 55 | 2.0 | 2.0 | 0.00 | 0.00 | 0.00 | 96 | 1020.0 |
| 20260506115227 | 44 | 51 | 1.0 | 2.0 | 0.00 | 0.00 | 0.00 | 96 | 1019.8 |
| 20260506114724 | 44 | 66 | 1.0 | 2.0 | 0.00 | 0.00 | 0.00 | 96 | 1019.7 |
| 20260506114222 | 44 | 68 | 2.0 | 2.0 | 0.00 | 0.00 | 0.00 | 96 | 1020.0 |
| 20260506113720 | 44 | 58 | 0.0 | 2.0 | 0.00 | 0.00 | 0.00 | 96 | 1019.7 |